Time,TemperatureF,DewpointF,PressureIn,WindDirection,WindDirectionDegrees,WindSpeedMPH,WindSpeedGustMPH,Humidity,HourlyPrecipIn,Conditions,Clouds,dailyrainin,SoftwareType,DateUTC
2013-01-24 00:00:00,48.5,45.4,29.57,East,89,5.0,6.0,89,0.00,,,0.89,VWS V14.01,2013-01-23 23:00:00,
2013-01-24 00:05:00,48.5,45.4,29.57,ESE,113,7.0,10.0,89,0.01,,,0.01,VWS V14.01,2013-01-23 23:05:00,
2013-01-24 00:10:00,48.8,45.7,29.56,East,84,3.0,10.0,89,0.01,,,0.01,VWS V14.01,2013-01-23 23:10:00,
2013-01-24 00:15:00,48.9,45.8,29.56,East,89,2.0,6.0,89,0.01,,,0.01,VWS V14.01,2013-01-23 23:15:00,
2013-01-24 00:20:00,49.1,46.0,29.56,East,97,7.0,8.0,89,0.01,,,0.01,VWS V14.01,2013-01-23 23:20:00,
2013-01-24 00:25:00,48.8,45.7,29.55,ENE,67,7.0,9.0,89,0.01,,,0.01,VWS V14.01,2013-01-23 23:25:00,
2013-01-24 00:30:00,48.9,45.8,29.54,ENE,77,5.0,10.0,89,0.01,,,0.01,VWS V14.01,2013-01-23 23:30:00,
2013-01-24 00:35:00,49.0,45.9,29.54,East,86,6.0,6.0,89,0.01,,,0.01,VWS V14.01,2013-01-23 23:35:00,
2013-01-24 00:40:00,49.5,46.4,29.53,East,100,5.0,10.0,89,0.01,,,0.01,VWS V14.01,2013-01-23 23:40:00,
2013-01-24 00:45:00,49.5,46.4,29.54,East,88,2.0,3.0,89,0.01,,,0.01,VWS V14.01,2013-01-23 23:45:00,
2013-01-24 00:50:00,49.5,46.4,29.53,ESE,111,5.0,8.0,89,0.01,,,0.01,VWS V14.01,2013-01-23 23:50:00,
2013-01-24 00:55:00,49.4,46.3,29.53,ESE,110,3.0,5.0,89,0.01,,,0.01,VWS V14.01,2013-01-23 23:55:00,
2013-01-24 01:00:00,49.4,46.3,29.52,ESE,110,3.0,5.0,89,0.01,,,0.01,VWS V14.01,2013-01-24 00:00:00,
2013-01-24 01:05:00,49.3,46.2,29.52,ESE,110,2.0,3.0,89,0.01,,,0.01,VWS V14.01,2013-01-24 00:05:00,
2013-01-24 01:10:00,49.3,46.2,29.52,ESE,110,1.0,4.0,89,0.01,,,0.01,VWS V14.01,2013-01-24 00:10:00,
2013-01-24 01:15:00,49.2,46.1,29.51,ESE,110,0.0,0.0,89,0.00,,,0.01,VWS V14.01,2013-01-24 00:15:00,
2013-01-24 01:20:00,49.0,45.9,29.51,ESE,111,4.0,5.0,89,0.00,,,0.01,VWS V14.01,2013-01-24 00:20:00,
2013-01-24 01:25:00,48.6,45.5,29.50,NNE,23,8.0,8.0,89,0.00,,,0.01,VWS V14.01,2013-01-24 00:25:00,
2013-01-24 01:30:00,48.6,45.8,29.50,NE,50,6.0,8.0,90,0.00,,,0.01,VWS V14.01,2013-01-24 00:30:00,
2013-01-24 01:35:00,48.9,46.1,29.50,ENE,64,3.0,3.0,90,0.02,,,0.03,VWS V14.01,2013-01-24 00:35:00,
2013-01-24 01:40:00,49.2,46.4,29.50,South,171,4.0,5.0,90,0.03,,,0.04,VWS V14.01,2013-01-24 00:40:00,
2013-01-24 01:46:00,49.8,47.0,29.50,SW,227,3.0,5.0,90,0.03,,,0.04,VWS V14.01,2013-01-24 00:46:00,
2013-01-24 01:50:00,50.1,46.7,29.50,WSW,254,1.0,6.0,88,0.03,,,0.04,VWS V14.01,2013-01-24 00:50:00,
2013-01-24 01:51:00,50.2,47.1,29.50,SW,227,1.0,6.0,89,0.03,,,0.04,VWS V14.01,2013-01-24 00:51:00,
2013-01-24 01:56:00,50.0,46.6,29.50,WSW,258,3.0,4.0,88,0.03,,,0.04,VWS V14.01,2013-01-24 00:56:00,
2013-01-24 02:00:00,49.5,46.1,29.50,WNW,286,1.0,4.0,88,0.03,,,0.04,VWS V14.01,2013-01-24 01:00:00,
2013-01-24 02:06:00,49.5,46.1,29.49,WNW,286,0.0,0.0,88,0.03,,,0.04,VWS V14.01,2013-01-24 01:06:00,
2013-01-24 02:10:00,50.3,46.3,29.49,SW,215,5.0,8.0,86,0.03,,,0.04,VWS V14.01,2013-01-24 01:10:00,
2013-01-24 02:11:00,49.4,46.0,29.49,SW,232,3.0,7.0,88,0.03,,,0.04,VWS V14.01,2013-01-24 01:11:00,
2013-01-24 02:16:00,50.6,46.3,29.49,SW,216,1.0,6.0,85,0.03,,,0.04,VWS V14.01,2013-01-24 01:16:00,
2013-01-24 02:20:00,50.3,46.0,29.49,SW,216,2.0,6.0,85,0.03,,,0.04,VWS V14.01,2013-01-24 01:20:00,
2013-01-24 02:21:00,50.6,46.0,29.49,SW,216,0.0,6.0,84,0.03,,,0.04,VWS V14.01,2013-01-24 01:21:00,
2013-01-24 02:26:00,50.1,45.5,29.48,WNW,284,2.0,4.0,84,0.03,,,0.04,VWS V14.01,2013-01-24 01:26:00,
2013-01-24 02:30:00,49.6,45.3,29.48,NNW,338,4.0,6.0,85,0.03,,,0.04,VWS V14.01,2013-01-24 01:30:00,
2013-01-24 02:31:00,50.1,45.8,29.48,NNW,339,1.0,5.0,85,0.03,,,0.04,VWS V14.01,2013-01-24 01:31:00,
2013-01-24 02:36:00,49.4,45.4,29.48,NNW,338,3.0,4.0,86,0.02,,,0.04,VWS V14.01,2013-01-24 01:36:00,
2013-01-24 02:40:00,49.5,45.5,29.47,NNW,338,0.0,4.0,86,0.03,,,0.05,VWS V14.01,2013-01-24 01:40:00,
2013-01-24 02:41:00,49.5,45.5,29.47,NNW,338,1.0,4.0,86,0.03,,,0.05,VWS V14.01,2013-01-24 01:41:00,
2013-01-24 02:46:00,49.5,45.5,29.47,NNW,338,1.0,1.0,86,0.01,,,0.05,VWS V14.01,2013-01-24 01:46:00,
2013-01-24 02:50:00,49.4,45.7,29.47,NNW,338,3.0,3.0,87,0.03,,,0.07,VWS V14.01,2013-01-24 01:50:00,
2013-01-24 02:51:00,49.5,45.5,29.47,NNW,338,1.0,2.0,86,0.01,,,0.05,VWS V14.01,2013-01-24 01:51:00,
2013-01-24 02:56:00,49.4,45.7,29.47,NNW,341,5.0,5.0,87,0.03,,,0.07,VWS V14.01,2013-01-24 01:56:00,
2013-01-24 03:00:00,49.2,45.5,29.46,NNW,344,2.0,5.0,87,0.03,,,0.07,VWS V14.01,2013-01-24 02:00:00,
2013-01-24 03:01:00,49.3,45.6,29.46,NNW,343,3.0,5.0,87,0.03,,,0.07,VWS V14.01,2013-01-24 02:01:00,
2013-01-24 03:06:00,49.1,45.4,29.46,NNW,344,3.0,3.0,87,0.03,,,0.07,VWS V14.01,2013-01-24 02:06:00,
2013-01-24 03:10:00,48.4,44.7,29.46,WSW,256,5.0,11.0,87,0.04,,,0.08,VWS V14.01,2013-01-24 02:10:00,
2013-01-24 03:11:00,48.9,45.2,29.46,NNW,344,2.0,5.0,87,0.04,,,0.08,VWS V14.01,2013-01-24 02:11:00,
2013-01-24 03:16:00,48.4,45.0,29.46,WSW,257,5.0,11.0,88,0.04,,,0.08,VWS V14.01,2013-01-24 02:16:00,
2013-01-24 03:20:00,48.9,45.2,29.46,WSW,241,5.0,14.0,87,0.05,,,0.09,VWS V14.01,2013-01-24 02:20:00,
2013-01-24 03:21:00,48.8,45.1,29.46,West,270,7.0,12.0,87,0.05,,,0.09,VWS V14.01,2013-01-24 02:21:00,
2013-01-24 03:26:00,48.9,44.9,29.46,WSW,251,8.0,9.0,86,0.05,,,0.09,VWS V14.01,2013-01-24 02:26:00,
2013-01-24 03:30:00,49.7,45.7,29.46,West,275,6.0,12.0,86,0.05,,,0.09,VWS V14.01,2013-01-24 02:30:00,
2013-01-24 03:31:00,49.5,45.5,29.46,West,271,7.0,12.0,86,0.05,,,0.09,VWS V14.01,2013-01-24 02:31:00,
2013-01-24 03:36:00,49.8,45.8,29.45,SW,224,6.0,13.0,86,0.05,,,0.09,VWS V14.01,2013-01-24 02:36:00,
2013-01-24 03:40:00,49.8,45.8,29.45,WSW,252,6.0,13.0,86,0.05,,,0.09,VWS V14.01,2013-01-24 02:40:00,
2013-01-24 03:41:00,49.9,45.9,29.45,WSW,249,5.0,13.0,86,0.05,,,0.09,VWS V14.01,2013-01-24 02:41:00,
2013-01-24 03:46:00,49.8,45.8,29.45,SW,227,8.0,8.0,86,0.04,,,0.09,VWS V14.01,2013-01-24 02:46:00,
2013-01-24 03:50:00,49.6,45.3,29.45,West,267,4.0,8.0,85,0.05,,,0.10,VWS V14.01,2013-01-24 02:50:00,
2013-01-24 03:51:00,49.7,45.4,29.45,West,267,3.0,8.0,85,0.05,,,0.10,VWS V14.01,2013-01-24 02:51:00,
2013-01-24 03:56:00,49.6,45.3,29.45,West,267,1.0,4.0,85,0.03,,,0.10,VWS V14.01,2013-01-24 02:56:00,
2013-01-24 04:00:00,49.4,45.4,29.45,West,267,4.0,4.0,86,0.03,,,0.10,VWS V14.01,2013-01-24 03:00:00,
2013-01-24 04:01:00,49.5,45.5,29.45,West,267,0.0,4.0,86,0.03,,,0.10,VWS V14.01,2013-01-24 03:01:00,
2013-01-24 04:06:00,49.4,45.4,29.45,West,267,0.0,4.0,86,0.03,,,0.10,VWS V14.01,2013-01-24 03:06:00,
2013-01-24 04:10:00,49.2,45.2,29.45,West,267,3.0,4.0,86,0.03,,,0.10,VWS V14.01,2013-01-24 03:10:00,
2013-01-24 04:11:00,49.3,45.3,29.45,West,267,0.0,4.0,86,0.03,,,0.10,VWS V14.01,2013-01-24 03:11:00,
2013-01-24 04:16:00,49.0,45.3,29.45,SSE,159,6.0,7.0,87,0.02,,,0.10,VWS V14.01,2013-01-24 03:16:00,
2013-01-24 04:20:00,49.1,45.4,29.45,WSW,252,3.0,7.0,87,0.02,,,0.10,VWS V14.01,2013-01-24 03:20:00,
2013-01-24 04:21:00,48.9,45.2,29.45,SSW,203,3.0,7.0,87,0.02,,,0.10,VWS V14.01,2013-01-24 03:21:00,
2013-01-24 04:26:00,49.1,45.4,29.45,WSW,241,4.0,7.0,87,0.01,,,0.10,VWS V14.01,2013-01-24 03:26:00,
2013-01-24 04:30:00,49.4,45.4,29.45,West,280,7.0,11.0,86,0.01,,,0.10,VWS V14.01,2013-01-24 03:30:00,
2013-01-24 04:31:00,49.3,45.6,29.45,SW,236,11.0,11.0,87,0.01,,,0.10,VWS V14.01,2013-01-24 03:31:00,
2013-01-24 04:36:00,48.9,44.9,29.45,WNW,294,4.0,7.0,86,0.01,,,0.10,VWS V14.01,2013-01-24 03:36:00,
2013-01-24 04:40:00,47.8,43.8,29.44,NNW,330,2.0,7.0,86,0.03,,,0.12,VWS V14.01,2013-01-24 03:40:00,
2013-01-24 04:41:00,48.2,44.2,29.45,WNW,294,1.0,7.0,86,0.03,,,0.12,VWS V14.01,2013-01-24 03:41:00,
2013-01-24 04:46:00,47.6,43.9,29.45,NNW,331,3.0,4.0,87,0.03,,,0.12,VWS V14.01,2013-01-24 03:46:00,
2013-01-24 04:50:00,47.2,43.8,29.44,NW,304,4.0,8.0,88,0.06,,,0.15,VWS V14.01,2013-01-24 03:50:00,
2013-01-24 04:51:00,47.3,43.9,29.45,NNW,340,2.0,8.0,88,0.05,,,0.14,VWS V14.01,2013-01-24 03:51:00,
2013-01-24 04:56:00,47.1,44.0,29.45,NW,308,6.0,7.0,89,0.07,,,0.17,VWS V14.01,2013-01-24 03:56:00,
2013-01-24 05:00:00,46.8,43.7,29.44,NW,313,4.0,8.0,89,0.13,,,0.23,VWS V14.01,2013-01-24 04:00:00,
2013-01-24 05:01:00,46.8,43.7,29.44,NW,313,4.0,8.0,89,0.12,,,0.22,VWS V14.01,2013-01-24 04:01:00,
2013-01-24 05:06:00,46.9,43.8,29.44,NW,314,4.0,4.0,89,0.14,,,0.24,VWS V14.01,2013-01-24 04:06:00,
2013-01-24 05:10:00,46.9,44.1,29.44,NW,314,1.0,4.0,90,0.17,,,0.27,VWS V14.01,2013-01-24 04:10:00,
2013-01-24 05:11:00,46.9,43.8,29.44,NW,314,0.0,4.0,89,0.16,,,0.26,VWS V14.01,2013-01-24 04:11:00,
2013-01-24 05:16:00,47.0,44.2,29.44,NW,314,2.0,2.0,90,0.18,,,0.28,VWS V14.01,2013-01-24 04:16:00,
2013-01-24 05:20:00,46.8,44.0,29.44,East,101,6.0,7.0,90,0.20,,,0.30,VWS V14.01,2013-01-24 04:20:00,
2013-01-24 05:21:00,46.9,44.1,29.44,East,99,3.0,6.0,90,0.20,,,0.30,VWS V14.01,2013-01-24 04:21:00,
2013-01-24 05:26:00,46.8,44.0,29.44,East,91,5.0,6.0,90,0.21,,,0.31,VWS V14.01,2013-01-24 04:26:00,
2013-01-24 05:30:00,46.7,44.2,29.44,ESE,113,8.0,10.0,91,0.23,,,0.33,VWS V14.01,2013-01-24 04:30:00,
2013-01-24 05:31:00,46.7,44.2,29.44,ESE,103,5.0,10.0,91,0.23,,,0.33,VWS V14.01,2013-01-24 04:31:00,
2013-01-24 05:36:00,46.6,44.1,29.43,East,99,11.0,11.0,91,0.24,,,0.34,VWS V14.01,2013-01-24 04:36:00,
2013-01-24 05:40:00,46.3,43.8,29.43,East,94,5.0,11.0,91,0.26,,,0.36,VWS V14.01,2013-01-24 04:40:00,
2013-01-24 05:41:00,46.4,43.9,29.43,ESE,113,5.0,11.0,91,0.25,,,0.35,VWS V14.01,2013-01-24 04:41:00,
2013-01-24 05:46:00,46.2,43.7,29.42,East,99,6.0,9.0,91,0.24,,,0.36,VWS V14.01,2013-01-24 04:46:00,
2013-01-24 05:50:00,46.0,43.5,29.42,East,84,5.0,9.0,91,0.25,,,0.37,VWS V14.01,2013-01-24 04:50:00,
2013-01-24 05:51:00,46.1,43.6,29.43,East,84,3.0,9.0,91,0.24,,,0.36,VWS V14.01,2013-01-24 04:51:00,
2013-01-24 05:57:00,46.0,43.5,29.42,East,83,7.0,7.0,91,0.22,,,0.37,VWS V14.01,2013-01-24 04:57:00,
2013-01-24 06:00:00,45.9,43.4,29.42,East,83,5.0,7.0,91,0.22,,,0.37,VWS V14.01,2013-01-24 05:00:00,
2013-01-24 06:01:00,45.9,43.4,29.42,East,83,5.0,7.0,91,0.22,,,0.37,VWS V14.01,2013-01-24 05:01:00,
2013-01-24 06:04:00,45.9,43.4,29.42,East,83,3.0,7.0,91,0.22,,,0.37,VWS V14.01,2013-01-24 05:04:00,
2013-01-24 06:09:00,45.9,43.4,29.43,East,83,0.0,3.0,91,0.14,,,0.37,VWS V14.01,2013-01-24 05:09:00,
2013-01-24 06:10:00,45.9,43.4,29.42,East,83,1.0,3.0,91,0.14,,,0.37,VWS V14.01,2013-01-24 05:10:00,
2013-01-24 06:14:00,45.9,43.4,29.42,East,83,1.0,3.0,91,0.14,,,0.37,VWS V14.01,2013-01-24 05:14:00,
2013-01-24 06:19:00,45.9,43.4,29.42,East,83,5.0,5.0,91,0.11,,,0.38,VWS V14.01,2013-01-24 05:19:00,
2013-01-24 06:20:00,46.0,43.5,29.42,ESE,112,3.0,5.0,91,0.11,,,0.38,VWS V14.01,2013-01-24 05:20:00,
2013-01-24 06:24:00,46.0,43.5,29.42,ESE,112,3.0,5.0,91,0.11,,,0.38,VWS V14.01,2013-01-24 05:24:00,
2013-01-24 06:29:00,46.0,43.5,29.42,ESE,118,4.0,5.0,91,0.08,,,0.38,VWS V14.01,2013-01-24 05:29:00,
2013-01-24 06:30:00,46.0,43.5,29.42,East,96,5.0,8.0,91,0.08,,,0.38,VWS V14.01,2013-01-24 05:30:00,
2013-01-24 06:35:00,46.1,43.6,29.42,ESE,108,3.0,8.0,91,0.08,,,0.38,VWS V14.01,2013-01-24 05:35:00,
2013-01-24 06:40:00,45.9,43.4,29.42,East,87,7.0,8.0,91,0.05,,,0.38,VWS V14.01,2013-01-24 05:40:00,
2013-01-24 06:44:00,45.9,43.4,29.42,East,99,7.0,8.0,91,0.02,,,0.38,VWS V14.01,2013-01-24 05:44:00,
2013-01-24 06:50:00,45.8,43.3,29.42,East,97,5.0,9.0,91,0.02,,,0.38,VWS V14.01,2013-01-24 05:50:00,
2013-01-24 06:55:00,45.8,43.3,29.43,East,97,1.0,5.0,91,0.01,,,0.38,VWS V14.01,2013-01-24 05:55:00,
2013-01-24 07:00:00,45.9,43.4,29.43,ESE,105,7.0,8.0,91,0.01,,,0.38,VWS V14.01,2013-01-24 06:00:00,
2013-01-24 07:05:00,46.1,43.6,29.43,ESE,113,5.0,5.0,91,0.01,,,0.38,VWS V14.01,2013-01-24 06:05:00,
2013-01-24 07:10:00,46.3,43.8,29.43,East,88,6.0,8.0,91,0.02,,,0.39,VWS V14.01,2013-01-24 06:10:00,
2013-01-24 07:15:00,46.2,43.7,29.43,East,82,6.0,8.0,91,0.02,,,0.39,VWS V14.01,2013-01-24 06:15:00,
2013-01-24 07:20:00,46.1,43.6,29.43,East,86,6.0,10.0,91,0.04,,,0.41,VWS V14.01,2013-01-24 06:20:00,
2013-01-24 07:25:00,46.0,43.5,29.43,East,92,6.0,6.0,91,0.03,,,0.41,VWS V14.01,2013-01-24 06:25:00,
2013-01-24 07:30:00,46.1,43.6,29.43,East,98,6.0,9.0,91,0.03,,,0.41,VWS V14.01,2013-01-24 06:30:00,
2013-01-24 07:35:00,46.0,43.5,29.43,East,100,8.0,8.0,91,0.03,,,0.41,VWS V14.01,2013-01-24 06:35:00,
2013-01-24 07:40:00,46.1,43.9,29.43,ESE,103,4.0,9.0,92,0.03,,,0.41,VWS V14.01,2013-01-24 06:40:00,
2013-01-24 07:45:00,46.2,44.0,29.43,ESE,105,3.0,7.0,92,0.03,,,0.41,VWS V14.01,2013-01-24 06:45:00,
2013-01-24 07:50:00,46.4,44.2,29.43,SE,126,5.0,8.0,92,0.03,,,0.41,VWS V14.01,2013-01-24 06:50:00,
2013-01-24 07:55:00,46.6,44.1,29.43,ESE,113,5.0,9.0,91,0.03,,,0.41,VWS V14.01,2013-01-24 06:55:00,
2013-01-24 08:00:00,46.5,44.0,29.43,ESE,108,9.0,10.0,91,0.03,,,0.41,VWS V14.01,2013-01-24 07:00:00,
2013-01-24 08:05:00,46.4,43.9,29.42,ESE,103,12.0,12.0,91,0.03,,,0.41,VWS V14.01,2013-01-24 07:05:00,
2013-01-24 08:10:00,46.4,44.2,29.42,ESE,107,7.0,11.0,92,0.03,,,0.41,VWS V14.01,2013-01-24 07:10:00,
2013-01-24 08:15:00,46.5,44.3,29.43,ESE,109,9.0,11.0,92,0.03,,,0.41,VWS V14.01,2013-01-24 07:15:00,
2013-01-24 08:20:00,46.6,44.4,29.42,East,82,9.0,11.0,92,0.02,,,0.41,VWS V14.01,2013-01-24 07:20:00,
2013-01-24 08:25:00,46.6,44.4,29.43,East,86,8.0,8.0,92,0.00,,,0.41,VWS V14.01,2013-01-24 07:25:00,
2013-01-24 08:30:00,46.7,44.5,29.43,ENE,71,8.0,9.0,92,0.00,,,0.41,VWS V14.01,2013-01-24 07:30:00,
2013-01-24 08:35:00,46.7,44.5,29.42,ENE,76,5.0,8.0,92,0.00,,,0.41,VWS V14.01,2013-01-24 07:35:00,
2013-01-24 08:40:00,46.7,44.5,29.42,East,101,7.0,8.0,92,0.00,,,0.41,VWS V14.01,2013-01-24 07:40:00,
2013-01-24 08:45:00,46.7,44.2,29.43,ESE,105,9.0,9.0,91,0.00,,,0.41,VWS V14.01,2013-01-24 07:45:00,
2013-01-24 08:50:00,46.8,44.6,29.42,East,93,5.0,9.0,92,0.00,,,0.41,VWS V14.01,2013-01-24 07:50:00,
2013-01-24 08:55:00,46.9,44.4,29.42,East,94,6.0,8.0,91,0.00,,,0.41,VWS V14.01,2013-01-24 07:55:00,
2013-01-24 09:00:00,47.1,44.6,29.42,East,88,7.0,9.0,91,0.00,,,0.41,VWS V14.01,2013-01-24 08:00:00,
2013-01-24 09:06:00,47.0,44.5,29.41,ESE,104,10.0,10.0,91,0.00,,,0.41,VWS V14.01,2013-01-24 08:06:00,
2013-01-24 09:10:00,47.3,44.8,29.42,ESE,115,5.0,11.0,91,0.00,,,0.41,VWS V14.01,2013-01-24 08:10:00,
2013-01-24 09:11:00,47.1,44.6,29.42,ESE,107,8.0,11.0,91,0.00,,,0.41,VWS V14.01,2013-01-24 08:11:00,
2013-01-24 09:16:00,47.2,44.7,29.41,East,98,7.0,10.0,91,0.00,,,0.41,VWS V14.01,2013-01-24 08:16:00,
2013-01-24 09:20:00,47.6,44.5,29.41,ESE,103,12.0,13.0,89,0.00,,,0.41,VWS V14.01,2013-01-24 08:20:00,
2013-01-24 09:21:00,47.5,44.7,29.41,ESE,112,7.0,13.0,90,0.00,,,0.41,VWS V14.01,2013-01-24 08:21:00,
2013-01-24 09:26:00,47.6,44.5,29.41,ESE,116,7.0,12.0,89,0.00,,,0.41,VWS V14.01,2013-01-24 08:26:00,
2013-01-24 09:30:00,47.7,44.6,29.41,ESE,106,11.0,12.0,89,0.00,,,0.41,VWS V14.01,2013-01-24 08:30:00,
2013-01-24 09:31:00,47.7,44.6,29.41,ESE,109,8.0,12.0,89,0.00,,,0.41,VWS V14.01,2013-01-24 08:31:00,
2013-01-24 09:36:00,47.7,44.6,29.41,East,90,10.0,11.0,89,0.00,,,0.41,VWS V14.01,2013-01-24 08:36:00,
2013-01-24 09:40:00,47.8,44.7,29.41,East,85,7.0,11.0,89,0.00,,,0.41,VWS V14.01,2013-01-24 08:40:00,
2013-01-24 09:41:00,47.8,44.7,29.41,East,97,5.0,11.0,89,0.00,,,0.41,VWS V14.01,2013-01-24 08:41:00,
2013-01-24 09:46:00,47.8,44.4,29.41,ESE,103,5.0,9.0,88,0.00,,,0.41,VWS V14.01,2013-01-24 08:46:00,
2013-01-24 09:50:00,47.7,44.3,29.41,East,81,9.0,9.0,88,0.00,,,0.41,VWS V14.01,2013-01-24 08:50:00,
2013-01-24 09:51:00,47.8,44.4,29.41,East,90,7.0,9.0,88,0.00,,,0.41,VWS V14.01,2013-01-24 08:51:00,
2013-01-24 09:56:00,47.7,44.3,29.41,East,99,7.0,9.0,88,0.00,,,0.41,VWS V14.01,2013-01-24 08:56:00,
2013-01-24 10:00:00,47.9,44.5,29.41,East,87,8.0,11.0,88,0.00,,,0.41,VWS V14.01,2013-01-24 09:00:00,
2013-01-24 10:01:00,47.9,44.5,29.41,East,96,5.0,11.0,88,0.00,,,0.41,VWS V14.01,2013-01-24 09:01:00,
2013-01-24 10:06:00,47.9,44.5,29.41,East,82,8.0,8.0,88,0.00,,,0.41,VWS V14.01,2013-01-24 09:06:00,
2013-01-24 10:10:00,48.0,44.3,29.41,ESE,102,5.0,9.0,87,0.00,,,0.41,VWS V14.01,2013-01-24 09:10:00,
2013-01-24 10:11:00,48.0,44.3,29.41,East,82,7.0,9.0,87,0.00,,,0.41,VWS V14.01,2013-01-24 09:11:00,
2013-01-24 10:16:00,48.0,44.3,29.41,East,83,7.0,9.0,87,0.00,,,0.41,VWS V14.01,2013-01-24 09:16:00,
2013-01-24 10:20:00,48.1,44.4,29.41,East,88,5.0,10.0,87,0.00,,,0.41,VWS V14.01,2013-01-24 09:20:00,
2013-01-24 10:21:00,48.1,44.4,29.41,East,88,9.0,10.0,87,0.00,,,0.41,VWS V14.01,2013-01-24 09:21:00,
2013-01-24 10:26:00,48.1,44.4,29.41,ENE,75,8.0,8.0,87,0.00,,,0.41,VWS V14.01,2013-01-24 09:26:00,
2013-01-24 10:30:00,48.3,44.6,29.41,East,96,3.0,9.0,87,0.00,,,0.41,VWS V14.01,2013-01-24 09:30:00,
2013-01-24 10:31:00,48.2,44.5,29.41,East,88,5.0,9.0,87,0.00,,,0.41,VWS V14.01,2013-01-24 09:31:00,
2013-01-24 10:36:00,48.4,44.7,29.40,East,99,6.0,7.0,87,0.00,,,0.41,VWS V14.01,2013-01-24 09:36:00,
2013-01-24 10:40:00,48.6,44.6,29.40,ESE,112,7.0,8.0,86,0.00,,,0.41,VWS V14.01,2013-01-24 09:40:00,
2013-01-24 10:41:00,48.5,44.5,29.40,ESE,110,8.0,8.0,86,0.00,,,0.41,VWS V14.01,2013-01-24 09:41:00,
2013-01-24 10:46:00,48.7,44.7,29.40,ESE,113,3.0,5.0,86,0.00,,,0.41,VWS V14.01,2013-01-24 09:46:00,
2013-01-24 10:50:00,48.7,44.7,29.40,ESE,111,2.0,5.0,86,0.00,,,0.41,VWS V14.01,2013-01-24 09:50:00,
2013-01-24 10:51:00,48.8,44.8,29.40,ESE,111,2.0,5.0,86,0.00,,,0.41,VWS V14.01,2013-01-24 09:51:00,
2013-01-24 10:56:00,48.7,44.7,29.40,ESE,112,3.0,4.0,86,0.00,,,0.41,VWS V14.01,2013-01-24 09:56:00,
2013-01-24 11:00:00,48.8,45.1,29.40,ESE,112,2.0,5.0,87,0.01,,,0.42,VWS V14.01,2013-01-24 10:00:00,
2013-01-24 11:01:00,48.8,45.1,29.40,ESE,112,2.0,5.0,87,0.00,,,0.41,VWS V14.01,2013-01-24 10:01:00,
2013-01-24 11:06:00,48.8,45.1,29.40,ESE,113,1.0,4.0,87,0.01,,,0.42,VWS V14.01,2013-01-24 10:06:00,
2013-01-24 11:10:00,48.9,45.2,29.40,ESE,117,3.0,7.0,87,0.01,,,0.42,VWS V14.01,2013-01-24 10:10:00,
2013-01-24 11:11:00,48.9,45.2,29.40,ESE,117,1.0,7.0,87,0.01,,,0.42,VWS V14.01,2013-01-24 10:11:00,
2013-01-24 11:16:00,48.9,45.2,29.40,ESE,117,3.0,3.0,87,0.01,,,0.42,VWS V14.01,2013-01-24 10:16:00,
2013-01-24 11:20:00,49.0,45.3,29.40,ESE,118,0.0,7.0,87,0.01,,,0.42,VWS V14.01,2013-01-24 10:20:00,
2013-01-24 11:21:00,48.9,45.2,29.40,ESE,118,2.0,7.0,87,0.01,,,0.42,VWS V14.01,2013-01-24 10:21:00,
2013-01-24 11:26:00,49.0,45.3,29.40,ESE,118,1.0,3.0,87,0.01,,,0.42,VWS V14.01,2013-01-24 10:26:00,
2013-01-24 11:30:00,49.0,45.3,29.39,ESE,118,0.0,3.0,87,0.01,,,0.42,VWS V14.01,2013-01-24 10:30:00,
2013-01-24 11:31:00,49.0,45.3,29.39,ESE,118,2.0,3.0,87,0.01,,,0.42,VWS V14.01,2013-01-24 10:31:00,
2013-01-24 11:36:00,49.0,45.3,29.39,ESE,118,0.0,0.0,87,0.01,,,0.42,VWS V14.01,2013-01-24 10:36:00,
2013-01-24 11:40:00,49.0,45.3,29.39,ESE,118,0.0,0.0,87,0.01,,,0.42,VWS V14.01,2013-01-24 10:40:00,
2013-01-24 11:41:00,49.0,45.3,29.39,ESE,118,0.0,0.0,87,0.01,,,0.42,VWS V14.01,2013-01-24 10:41:00,
2013-01-24 11:46:00,48.9,45.5,29.39,ESE,118,0.0,0.0,88,0.01,,,0.42,VWS V14.01,2013-01-24 10:46:00,
2013-01-24 11:50:00,48.9,45.5,29.39,ESE,118,1.0,2.0,88,0.01,,,0.42,VWS V14.01,2013-01-24 10:50:00,
2013-01-24 11:51:00,48.9,45.5,29.39,ESE,118,0.0,0.0,88,0.01,,,0.42,VWS V14.01,2013-01-24 10:51:00,
2013-01-24 11:57:00,48.9,45.5,29.39,ESE,118,2.0,2.0,88,0.01,,,0.42,VWS V14.01,2013-01-24 10:57:00,
2013-01-24 12:00:00,48.9,45.5,29.38,ESE,118,0.0,2.0,88,0.01,,,0.42,VWS V14.01,2013-01-24 11:00:00,
2013-01-24 12:02:00,48.8,45.4,29.38,ESE,118,1.0,2.0,88,0.01,,,0.42,VWS V14.01,2013-01-24 11:02:00,
2013-01-24 12:07:00,48.9,45.5,29.38,ESE,118,0.0,0.0,88,0.00,,,0.42,VWS V14.01,2013-01-24 11:07:00,
2013-01-24 12:10:00,49.0,45.6,29.38,ESE,118,0.0,0.0,88,0.00,,,0.42,VWS V14.01,2013-01-24 11:10:00,
2013-01-24 12:12:00,48.9,45.5,29.38,ESE,118,0.0,0.0,88,0.00,,,0.42,VWS V14.01,2013-01-24 11:12:00,
2013-01-24 12:17:00,48.9,45.5,29.38,ESE,118,0.0,0.0,88,0.00,,,0.42,VWS V14.01,2013-01-24 11:17:00,
2013-01-24 12:20:00,48.9,45.5,29.38,ESE,118,1.0,4.0,88,0.01,,,0.43,VWS V14.01,2013-01-24 11:20:00,
2013-01-24 12:22:00,48.9,45.5,29.38,ESE,119,1.0,4.0,88,0.00,,,0.43,VWS V14.01,2013-01-24 11:22:00,
2013-01-24 12:27:00,48.9,45.5,29.38,ESE,119,1.0,2.0,88,0.01,,,0.43,VWS V14.01,2013-01-24 11:27:00,
2013-01-24 12:30:00,48.9,45.5,29.38,ESE,119,3.0,4.0,88,0.01,,,0.43,VWS V14.01,2013-01-24 11:30:00,
2013-01-24 12:32:00,49.0,45.6,29.38,ESE,118,2.0,2.0,88,0.01,,,0.43,VWS V14.01,2013-01-24 11:32:00,
2013-01-24 12:37:00,48.9,45.5,29.37,ESE,119,1.0,3.0,88,0.01,,,0.43,VWS V14.01,2013-01-24 11:37:00,
2013-01-24 12:40:00,48.8,45.4,29.37,ESE,119,0.0,3.0,88,0.02,,,0.44,VWS V14.01,2013-01-24 11:40:00,
2013-01-24 12:42:00,48.9,45.5,29.38,ESE,119,2.0,3.0,88,0.02,,,0.44,VWS V14.01,2013-01-24 11:42:00,
2013-01-24 12:47:00,48.8,45.4,29.37,ESE,119,0.0,2.0,88,0.02,,,0.44,VWS V14.01,2013-01-24 11:47:00,
2013-01-24 12:50:00,49.0,45.6,29.38,ESE,119,2.0,3.0,88,0.03,,,0.45,VWS V14.01,2013-01-24 11:50:00,
2013-01-24 12:52:00,48.9,45.5,29.37,ESE,119,0.0,2.0,88,0.02,,,0.44,VWS V14.01,2013-01-24 11:52:00,
2013-01-24 12:57:00,48.9,45.8,29.37,NE,56,4.0,5.0,89,0.03,,,0.45,VWS V14.01,2013-01-24 11:57:00,
2013-01-24 13:00:00,48.8,45.7,29.38,NE,52,3.0,5.0,89,0.03,,,0.45,VWS V14.01,2013-01-24 12:00:00,
2013-01-24 13:02:00,48.8,45.7,29.38,NE,52,3.0,5.0,89,0.03,,,0.45,VWS V14.01,2013-01-24 12:02:00,
2013-01-24 13:07:00,48.7,45.9,29.38,NE,52,1.0,3.0,90,0.03,,,0.45,VWS V14.01,2013-01-24 12:07:00,
2013-01-24 13:10:00,48.8,46.0,29.37,NE,52,3.0,4.0,90,0.03,,,0.45,VWS V14.01,2013-01-24 12:10:00,
2013-01-24 13:12:00,48.7,45.9,29.38,NE,52,3.0,4.0,90,0.03,,,0.45,VWS V14.01,2013-01-24 12:12:00,
2013-01-24 13:17:00,48.9,46.1,29.37,NE,50,4.0,5.0,90,0.03,,,0.45,VWS V14.01,2013-01-24 12:17:00,
2013-01-24 13:20:00,48.9,46.1,29.38,NE,46,2.0,6.0,90,0.03,,,0.45,VWS V14.01,2013-01-24 12:20:00,
2013-01-24 13:22:00,48.9,46.1,29.37,NE,46,3.0,6.0,90,0.03,,,0.45,VWS V14.01,2013-01-24 12:22:00,
2013-01-24 13:27:00,48.9,46.1,29.37,NE,46,2.0,4.0,90,0.02,,,0.45,VWS V14.01,2013-01-24 12:27:00,
2013-01-24 13:30:00,49.1,46.6,29.37,NE,46,0.0,4.0,91,0.02,,,0.45,VWS V14.01,2013-01-24 12:30:00,
2013-01-24 13:32:00,49.0,46.5,29.37,NE,46,4.0,4.0,91,0.02,,,0.45,VWS V14.01,2013-01-24 12:32:00,
2013-01-24 13:37:00,49.0,46.2,29.37,NE,46,0.0,4.0,90,0.02,,,0.45,VWS V14.01,2013-01-24 12:37:00,
2013-01-24 13:40:00,49.4,46.9,29.36,NE,46,0.0,4.0,91,0.02,,,0.45,VWS V14.01,2013-01-24 12:40:00,
2013-01-24 13:42:00,49.1,46.3,29.36,NE,46,0.0,4.0,90,0.02,,,0.45,VWS V14.01,2013-01-24 12:42:00,
2013-01-24 13:47:00,49.6,46.8,29.36,NE,46,0.0,0.0,90,0.01,,,0.45,VWS V14.01,2013-01-24 12:47:00,
2013-01-24 13:50:00,49.8,47.3,29.37,NE,46,0.0,2.0,91,0.01,,,0.45,VWS V14.01,2013-01-24 12:50:00,
2013-01-24 13:52:00,49.6,46.8,29.37,NE,46,0.0,2.0,90,0.01,,,0.45,VWS V14.01,2013-01-24 12:52:00,
2013-01-24 13:57:00,49.8,47.0,29.37,NE,46,0.0,0.0,90,0.00,,,0.45,VWS V14.01,2013-01-24 12:57:00,
2013-01-24 14:00:00,50.2,47.4,29.37,NW,308,3.0,7.0,90,0.00,,,0.45,VWS V14.01,2013-01-24 13:00:00,
2013-01-24 14:02:00,50.2,47.4,29.37,NNE,24,4.0,5.0,90,0.00,,,0.45,VWS V14.01,2013-01-24 13:02:00,
2013-01-24 14:07:00,50.3,47.2,29.36,North,355,3.0,7.0,89,0.00,,,0.45,VWS V14.01,2013-01-24 13:07:00,
2013-01-24 14:10:00,50.8,47.7,29.36,North,360,1.0,7.0,89,0.00,,,0.45,VWS V14.01,2013-01-24 13:10:00,
2013-01-24 14:12:00,50.5,47.4,29.36,North,360,3.0,7.0,89,0.00,,,0.45,VWS V14.01,2013-01-24 13:12:00,
2013-01-24 14:17:00,51.1,48.0,29.36,North,360,0.0,4.0,89,0.00,,,0.45,VWS V14.01,2013-01-24 13:17:00,
2013-01-24 14:20:00,51.5,48.1,29.37,North,360,3.0,5.0,88,0.00,,,0.45,VWS V14.01,2013-01-24 13:20:00,
2013-01-24 14:22:00,51.6,48.5,29.36,North,360,3.0,5.0,89,0.00,,,0.45,VWS V14.01,2013-01-24 13:22:00,
2013-01-24 14:27:00,51.7,48.3,29.36,North,360,0.0,3.0,88,0.00,,,0.45,VWS V14.01,2013-01-24 13:27:00,
2013-01-24 14:30:00,52.4,48.0,29.36,West,262,5.0,7.0,85,0.00,,,0.45,VWS V14.01,2013-01-24 13:30:00,
2013-01-24 14:33:00,52.5,48.8,29.36,WSW,248,6.0,7.0,87,0.00,,,0.45,VWS V14.01,2013-01-24 13:33:00,
2013-01-24 14:38:00,52.3,47.9,29.36,WSW,249,3.0,7.0,85,0.00,,,0.45,VWS V14.01,2013-01-24 13:38:00,
2013-01-24 14:40:00,51.4,46.4,29.37,WSW,255,4.0,7.0,83,0.00,,,0.45,VWS V14.01,2013-01-24 13:40:00,
2013-01-24 14:43:00,51.6,46.6,29.37,WSW,252,5.0,7.0,83,0.00,,,0.45,VWS V14.01,2013-01-24 13:43:00,
2013-01-24 14:48:00,51.2,46.2,29.37,WNW,298,3.0,6.0,83,0.00,,,0.45,VWS V14.01,2013-01-24 13:48:00,
2013-01-24 14:50:00,50.7,45.7,29.37,West,280,6.0,7.0,83,0.00,,,0.45,VWS V14.01,2013-01-24 13:50:00,
2013-01-24 14:53:00,50.9,45.9,29.37,West,267,5.0,6.0,83,0.00,,,0.45,VWS V14.01,2013-01-24 13:53:00,
2013-01-24 14:58:00,50.7,46.0,29.38,West,274,2.0,7.0,84,0.00,,,0.45,VWS V14.01,2013-01-24 13:58:00,
2013-01-24 15:00:00,51.5,46.8,29.38,West,275,0.0,7.0,84,0.00,,,0.45,VWS V14.01,2013-01-24 14:00:00,
2013-01-24 15:03:00,51.3,46.6,29.38,West,275,0.0,7.0,84,0.00,,,0.45,VWS V14.01,2013-01-24 14:03:00,
2013-01-24 15:08:00,51.9,47.2,29.38,WNW,289,6.0,6.0,84,0.00,,,0.45,VWS V14.01,2013-01-24 14:08:00,
2013-01-24 15:10:00,51.6,46.3,29.37,WNW,292,6.0,6.0,82,0.00,,,0.45,VWS V14.01,2013-01-24 14:10:00,
2013-01-24 15:13:00,51.4,46.1,29.37,WNW,290,2.0,6.0,82,0.00,,,0.45,VWS V14.01,2013-01-24 14:13:00,
2013-01-24 15:18:00,51.6,46.3,29.38,WNW,294,3.0,7.0,82,0.00,,,0.45,VWS V14.01,2013-01-24 14:18:00,
2013-01-24 15:20:00,51.7,46.4,29.37,WNW,286,0.0,7.0,82,0.00,,,0.45,VWS V14.01,2013-01-24 14:20:00,
2013-01-24 15:23:00,51.7,46.4,29.38,WNW,286,0.0,7.0,82,0.00,,,0.45,VWS V14.01,2013-01-24 14:23:00,
2013-01-24 15:28:00,51.7,46.4,29.38,West,277,3.0,9.0,82,0.00,,,0.45,VWS V14.01,2013-01-24 14:28:00,
2013-01-24 15:30:00,51.9,46.6,29.38,West,275,7.0,9.0,82,0.00,,,0.45,VWS V14.01,2013-01-24 14:30:00,
2013-01-24 15:33:00,51.8,46.5,29.37,West,277,2.0,9.0,82,0.00,,,0.45,VWS V14.01,2013-01-24 14:33:00,
2013-01-24 15:38:00,51.5,45.9,29.38,WNW,288,5.0,7.0,81,0.00,,,0.45,VWS V14.01,2013-01-24 14:38:00,
2013-01-24 15:40:00,51.5,45.9,29.38,West,275,4.0,7.0,81,0.00,,,0.45,VWS V14.01,2013-01-24 14:40:00,
2013-01-24 15:43:00,51.6,46.0,29.38,West,273,5.0,7.0,81,0.00,,,0.45,VWS V14.01,2013-01-24 14:43:00,
2013-01-24 15:48:00,51.8,46.2,29.38,West,273,6.0,6.0,81,0.00,,,0.45,VWS V14.01,2013-01-24 14:48:00,
2013-01-24 15:50:00,51.8,46.2,29.38,WSW,250,5.0,7.0,81,0.00,,,0.45,VWS V14.01,2013-01-24 14:50:00,
2013-01-24 15:53:00,51.8,46.2,29.38,WSW,249,5.0,7.0,81,0.00,,,0.45,VWS V14.01,2013-01-24 14:53:00,
2013-01-24 15:58:00,51.6,46.0,29.38,WSW,251,4.0,7.0,81,0.00,,,0.45,VWS V14.01,2013-01-24 14:58:00,
2013-01-24 16:00:00,51.8,46.5,29.39,WSW,250,4.0,7.0,82,0.00,,,0.45,VWS V14.01,2013-01-24 15:00:00,
2013-01-24 16:03:00,51.7,46.4,29.38,WSW,252,2.0,7.0,82,0.00,,,0.45,VWS V14.01,2013-01-24 15:03:00,
2013-01-24 16:08:00,51.7,46.4,29.39,WSW,257,5.0,5.0,82,0.00,,,0.45,VWS V14.01,2013-01-24 15:08:00,
2013-01-24 16:10:00,51.5,46.2,29.39,West,263,4.0,8.0,82,0.00,,,0.45,VWS V14.01,2013-01-24 15:10:00,
2013-01-24 16:13:00,51.5,46.2,29.39,WSW,252,3.0,8.0,82,0.00,,,0.45,VWS V14.01,2013-01-24 15:13:00,
2013-01-24 16:18:00,51.6,46.3,29.39,West,273,5.0,6.0,82,0.00,,,0.45,VWS V14.01,2013-01-24 15:18:00,
2013-01-24 16:20:00,51.2,45.9,29.39,West,280,4.0,6.0,82,0.00,,,0.45,VWS V14.01,2013-01-24 15:20:00,
2013-01-24 16:23:00,51.4,46.1,29.39,West,281,5.0,6.0,82,0.00,,,0.45,VWS V14.01,2013-01-24 15:23:00,
2013-01-24 16:28:00,50.9,45.6,29.39,West,267,3.0,6.0,82,0.00,,,0.45,VWS V14.01,2013-01-24 15:28:00,
2013-01-24 16:30:00,50.7,46.0,29.39,West,271,5.0,6.0,84,0.00,,,0.45,VWS V14.01,2013-01-24 15:30:00,
2013-01-24 16:33:00,50.8,45.8,29.39,West,268,5.0,6.0,83,0.00,,,0.45,VWS V14.01,2013-01-24 15:33:00,
2013-01-24 16:38:00,50.6,46.0,29.39,WNW,290,6.0,7.0,84,0.00,,,0.45,VWS V14.01,2013-01-24 15:38:00,
2013-01-24 16:40:00,50.4,45.8,29.39,WNW,290,3.0,7.0,84,0.00,,,0.45,VWS V14.01,2013-01-24 15:40:00,
2013-01-24 16:43:00,50.4,45.8,29.39,WNW,290,5.0,7.0,84,0.00,,,0.45,VWS V14.01,2013-01-24 15:43:00,
2013-01-24 16:48:00,50.3,45.7,29.39,WNW,290,1.0,4.0,84,0.00,,,0.45,VWS V14.01,2013-01-24 15:48:00,
2013-01-24 16:50:00,50.0,45.4,29.39,WNW,290,0.0,4.0,84,0.00,,,0.45,VWS V14.01,2013-01-24 15:50:00,
2013-01-24 16:53:00,50.1,45.5,29.39,WNW,290,0.0,4.0,84,0.00,,,0.45,VWS V14.01,2013-01-24 15:53:00,
2013-01-24 16:58:00,50.0,45.7,29.39,WNW,290,0.0,1.0,85,0.00,,,0.45,VWS V14.01,2013-01-24 15:58:00,
2013-01-24 17:00:00,49.9,45.6,29.39,WNW,290,0.0,1.0,85,0.00,,,0.45,VWS V14.01,2013-01-24 16:00:00,
2013-01-24 17:03:00,49.9,45.6,29.39,WNW,290,0.0,1.0,85,0.00,,,0.45,VWS V14.01,2013-01-24 16:03:00,
2013-01-24 17:08:00,49.8,45.5,29.39,WNW,290,0.0,0.0,85,0.00,,,0.45,VWS V14.01,2013-01-24 16:08:00,
2013-01-24 17:10:00,49.6,45.3,29.40,WNW,290,0.0,0.0,85,0.00,,,0.45,VWS V14.01,2013-01-24 16:10:00,
2013-01-24 17:13:00,49.7,45.4,29.40,WNW,290,0.0,0.0,85,0.00,,,0.45,VWS V14.01,2013-01-24 16:13:00,
2013-01-24 17:18:00,49.5,45.5,29.40,WNW,290,0.0,2.0,86,0.00,,,0.45,VWS V14.01,2013-01-24 16:18:00,
2013-01-24 17:20:00,49.5,45.5,29.40,WNW,290,0.0,4.0,86,0.00,,,0.45,VWS V14.01,2013-01-24 16:20:00,
2013-01-24 17:23:00,49.5,45.5,29.40,WNW,290,0.0,4.0,86,0.00,,,0.45,VWS V14.01,2013-01-24 16:23:00,
2013-01-24 17:28:00,49.5,45.5,29.41,WNW,290,2.0,2.0,86,0.00,,,0.45,VWS V14.01,2013-01-24 16:28:00,
2013-01-24 17:30:00,49.2,45.2,29.41,WNW,290,0.0,3.0,86,0.02,,,0.47,VWS V14.01,2013-01-24 16:30:00,
2013-01-24 17:34:00,49.2,45.2,29.41,WNW,290,1.0,3.0,86,0.02,,,0.47,VWS V14.01,2013-01-24 16:34:00,
2013-01-24 17:39:00,48.9,44.9,29.41,WNW,290,0.0,2.0,86,0.02,,,0.47,VWS V14.01,2013-01-24 16:39:00,
2013-01-24 17:40:00,48.7,44.7,29.42,WNW,290,0.0,2.0,86,0.02,,,0.47,VWS V14.01,2013-01-24 16:40:00,
2013-01-24 17:44:00,48.7,44.7,29.42,WNW,290,0.0,2.0,86,0.02,,,0.47,VWS V14.01,2013-01-24 16:44:00,
2013-01-24 17:49:00,49.0,45.3,29.42,WNW,290,2.0,2.0,87,0.02,,,0.47,VWS V14.01,2013-01-24 16:49:00,
2013-01-24 17:50:00,48.9,45.2,29.42,WNW,290,0.0,2.0,87,0.02,,,0.47,VWS V14.01,2013-01-24 16:50:00,
2013-01-24 17:54:00,49.0,45.3,29.42,WNW,290,1.0,2.0,87,0.02,,,0.47,VWS V14.01,2013-01-24 16:54:00,
2013-01-24 17:59:00,48.8,45.1,29.42,WNW,290,0.0,0.0,87,0.02,,,0.47,VWS V14.01,2013-01-24 16:59:00,
2013-01-24 18:00:00,49.0,45.6,29.42,WNW,290,0.0,2.0,88,0.02,,,0.47,VWS V14.01,2013-01-24 17:00:00,
2013-01-24 18:04:00,48.9,45.5,29.42,WNW,290,0.0,2.0,88,0.02,,,0.47,VWS V14.01,2013-01-24 17:04:00,
2013-01-24 18:09:00,49.1,45.7,29.42,WNW,290,0.0,0.0,88,0.02,,,0.47,VWS V14.01,2013-01-24 17:09:00,
2013-01-24 18:10:00,49.1,45.7,29.43,WNW,290,3.0,4.0,88,0.02,,,0.47,VWS V14.01,2013-01-24 17:10:00,
2013-01-24 18:14:00,49.1,45.7,29.43,WNW,290,2.0,4.0,88,0.02,,,0.47,VWS V14.01,2013-01-24 17:14:00,
2013-01-24 18:19:00,49.3,45.9,29.42,WNW,290,1.0,3.0,88,0.02,,,0.47,VWS V14.01,2013-01-24 17:19:00,
2013-01-24 18:20:00,49.5,46.1,29.43,WNW,288,3.0,4.0,88,0.02,,,0.47,VWS V14.01,2013-01-24 17:20:00,
2013-01-24 18:24:00,49.5,46.1,29.43,WNW,288,2.0,4.0,88,0.02,,,0.47,VWS V14.01,2013-01-24 17:24:00,
2013-01-24 18:29:00,49.8,46.1,29.43,WNW,288,3.0,3.0,87,0.02,,,0.47,VWS V14.01,2013-01-24 17:29:00,
2013-01-24 18:30:00,50.0,46.3,29.43,WNW,288,0.0,3.0,87,0.02,,,0.47,VWS V14.01,2013-01-24 17:30:00,
2013-01-24 18:34:00,49.9,46.2,29.43,WNW,288,0.0,3.0,87,0.02,,,0.47,VWS V14.01,2013-01-24 17:34:00,
2013-01-24 18:39:00,50.2,46.5,29.43,South,184,7.0,7.0,87,0.00,,,0.47,VWS V14.01,2013-01-24 17:39:00,
2013-01-24 18:40:00,50.1,46.1,29.44,SW,217,10.0,11.0,86,0.00,,,0.47,VWS V14.01,2013-01-24 17:40:00,
2013-01-24 18:44:00,50.1,46.1,29.44,SW,217,5.0,11.0,86,0.00,,,0.47,VWS V14.01,2013-01-24 17:44:00,
2013-01-24 18:49:00,49.7,45.4,29.44,SW,223,5.0,14.0,85,0.00,,,0.47,VWS V14.01,2013-01-24 17:49:00,
2013-01-24 18:50:00,49.5,44.9,29.44,SSW,202,5.0,14.0,84,0.00,,,0.47,VWS V14.01,2013-01-24 17:50:00,
2013-01-24 18:54:00,49.5,44.9,29.44,SSW,206,5.0,14.0,84,0.00,,,0.47,VWS V14.01,2013-01-24 17:54:00,
2013-01-24 18:59:00,49.4,44.8,29.44,SSW,204,0.0,7.0,84,0.00,,,0.47,VWS V14.01,2013-01-24 17:59:00,
2013-01-24 19:00:00,49.3,44.7,29.44,SSW,204,2.0,7.0,84,0.00,,,0.47,VWS V14.01,2013-01-24 18:00:00,
2013-01-24 19:04:00,49.3,44.7,29.44,SSW,204,2.0,7.0,84,0.00,,,0.47,VWS V14.01,2013-01-24 18:04:00,
2013-01-24 19:09:00,49.1,44.5,29.44,SSW,204,2.0,2.0,84,0.00,,,0.47,VWS V14.01,2013-01-24 18:09:00,
2013-01-24 19:10:00,48.9,44.3,29.44,SSW,204,2.0,2.0,84,0.00,,,0.47,VWS V14.01,2013-01-24 18:10:00,
2013-01-24 19:14:00,48.9,44.3,29.44,SSW,204,2.0,2.0,84,0.00,,,0.47,VWS V14.01,2013-01-24 18:14:00,
2013-01-24 19:19:00,48.6,44.0,29.44,SSW,204,2.0,3.0,84,0.00,,,0.47,VWS V14.01,2013-01-24 18:19:00,
2013-01-24 19:20:00,48.6,44.0,29.44,SSW,204,2.0,3.0,84,0.00,,,0.47,VWS V14.01,2013-01-24 18:20:00,
2013-01-24 19:24:00,48.6,44.0,29.44,SSW,204,2.0,3.0,84,0.00,,,0.47,VWS V14.01,2013-01-24 18:24:00,
2013-01-24 19:29:00,48.6,43.7,29.44,SSW,204,3.0,4.0,83,0.00,,,0.47,VWS V14.01,2013-01-24 18:29:00,
2013-01-24 19:30:00,48.7,43.8,29.44,SSW,204,2.0,4.0,83,0.00,,,0.47,VWS V14.01,2013-01-24 18:30:00,
2013-01-24 19:34:00,48.7,43.8,29.44,SSW,204,2.0,4.0,83,0.00,,,0.47,VWS V14.01,2013-01-24 18:34:00,
2013-01-24 19:39:00,48.7,43.8,29.44,SSW,204,1.0,3.0,83,0.00,,,0.47,VWS V14.01,2013-01-24 18:39:00,
2013-01-24 19:40:00,48.6,43.7,29.44,SSW,204,1.0,3.0,83,0.00,,,0.47,VWS V14.01,2013-01-24 18:40:00,
2013-01-24 19:44:00,48.6,43.7,29.44,SSW,204,0.0,3.0,83,0.00,,,0.47,VWS V14.01,2013-01-24 18:44:00,
2013-01-24 19:50:00,48.6,44.0,29.44,SSW,204,0.0,2.0,84,0.00,,,0.47,VWS V14.01,2013-01-24 18:50:00,
2013-01-24 19:55:00,48.8,44.2,29.44,SSW,204,0.0,2.0,84,0.00,,,0.47,VWS V14.01,2013-01-24 18:55:00,
2013-01-24 20:00:00,49.0,44.4,29.44,SSW,204,0.0,2.0,84,0.00,,,0.47,VWS V14.01,2013-01-24 19:00:00,
2013-01-24 20:05:00,49.2,44.6,29.44,SSW,204,2.0,3.0,84,0.00,,,0.47,VWS V14.01,2013-01-24 19:05:00,
2013-01-24 20:10:00,49.5,44.9,29.44,SSW,204,0.0,2.0,84,0.00,,,0.47,VWS V14.01,2013-01-24 19:10:00,
2013-01-24 20:15:00,49.6,45.0,29.44,SSW,204,2.0,2.0,84,0.00,,,0.47,VWS V14.01,2013-01-24 19:15:00,
2013-01-24 20:20:00,49.4,44.8,29.44,SSW,204,2.0,3.0,84,0.00,,,0.47,VWS V14.01,2013-01-24 19:20:00,
2013-01-24 20:25:00,49.3,45.0,29.44,SSW,204,0.0,3.0,85,0.00,,,0.47,VWS V14.01,2013-01-24 19:25:00,
2013-01-24 20:30:00,49.0,44.7,29.44,South,180,3.0,5.0,85,0.00,,,0.47,VWS V14.01,2013-01-24 19:30:00,
2013-01-24 20:35:00,49.1,44.8,29.44,South,180,2.0,4.0,85,0.00,,,0.47,VWS V14.01,2013-01-24 19:35:00,
2013-01-24 20:40:00,49.1,45.1,29.44,SSW,209,8.0,8.0,86,0.00,,,0.47,VWS V14.01,2013-01-24 19:40:00,
2013-01-24 20:45:00,48.8,44.5,29.44,SW,235,5.0,8.0,85,0.01,,,0.48,VWS V14.01,2013-01-24 19:45:00,
2013-01-24 20:50:00,48.7,44.4,29.44,WSW,244,0.0,8.0,85,0.02,,,0.49,VWS V14.01,2013-01-24 19:50:00,
2013-01-24 20:55:00,48.7,44.1,29.44,WSW,244,0.0,0.0,84,0.02,,,0.49,VWS V14.01,2013-01-24 19:55:00,
2013-01-24 21:00:00,48.5,43.9,29.44,WSW,244,0.0,2.0,84,0.02,,,0.49,VWS V14.01,2013-01-24 20:00:00,
2013-01-24 21:05:00,48.4,43.8,29.44,WSW,244,1.0,2.0,84,0.02,,,0.49,VWS V14.01,2013-01-24 20:05:00,
2013-01-24 21:10:00,48.4,43.8,29.44,WSW,244,1.0,3.0,84,0.02,,,0.49,VWS V14.01,2013-01-24 20:10:00,
2013-01-24 21:15:00,48.4,43.8,29.44,WSW,244,2.0,3.0,84,0.02,,,0.49,VWS V14.01,2013-01-24 20:15:00,
2013-01-24 21:20:00,48.4,44.1,29.44,West,281,1.0,3.0,85,0.02,,,0.49,VWS V14.01,2013-01-24 20:20:00,
2013-01-24 21:25:00,48.4,44.1,29.44,West,281,3.0,4.0,85,0.02,,,0.49,VWS V14.01,2013-01-24 20:25:00,
2013-01-24 21:30:00,48.5,44.2,29.44,WNW,284,0.0,4.0,85,0.02,,,0.49,VWS V14.01,2013-01-24 20:30:00,
2013-01-24 21:35:00,48.4,43.8,29.44,WNW,284,0.0,0.0,84,0.02,,,0.49,VWS V14.01,2013-01-24 20:35:00,
2013-01-24 21:40:00,48.3,44.0,29.44,WNW,284,1.0,2.0,85,0.02,,,0.49,VWS V14.01,2013-01-24 20:40:00,
2013-01-24 21:45:00,48.3,44.0,29.44,NE,38,3.0,4.0,85,0.01,,,0.49,VWS V14.01,2013-01-24 20:45:00,
2013-01-24 21:50:00,48.5,44.2,29.44,NE,41,2.0,4.0,85,0.01,,,0.49,VWS V14.01,2013-01-24 20:50:00,
2013-01-24 21:55:00,48.5,43.9,29.44,NE,41,1.0,2.0,84,0.00,,,0.49,VWS V14.01,2013-01-24 20:55:00,
2013-01-24 22:00:00,48.4,43.8,29.44,NE,41,1.0,3.0,84,0.00,,,0.49,VWS V14.01,2013-01-24 21:00:00,
2013-01-24 22:06:00,48.5,43.9,29.44,NE,41,1.0,3.0,84,0.00,,,0.49,VWS V14.01,2013-01-24 21:06:00,
2013-01-24 22:10:00,49.0,44.1,29.44,NE,41,1.0,3.0,83,0.00,,,0.49,VWS V14.01,2013-01-24 21:10:00,
2013-01-24 22:11:00,48.9,44.0,29.44,NE,41,1.0,3.0,83,0.00,,,0.49,VWS V14.01,2013-01-24 21:11:00,
2013-01-24 22:16:00,49.0,44.1,29.44,NE,41,0.0,1.0,83,0.00,,,0.49,VWS V14.01,2013-01-24 21:16:00,
2013-01-24 22:20:00,49.0,44.1,29.44,NE,41,0.0,3.0,83,0.00,,,0.49,VWS V14.01,2013-01-24 21:20:00,
2013-01-24 22:21:00,48.9,44.0,29.44,NE,41,1.0,3.0,83,0.00,,,0.49,VWS V14.01,2013-01-24 21:21:00,
2013-01-24 22:26:00,49.0,44.1,29.44,NE,41,0.0,0.0,83,0.00,,,0.49,VWS V14.01,2013-01-24 21:26:00,
2013-01-24 22:30:00,49.5,44.2,29.44,NE,41,0.0,3.0,82,0.00,,,0.49,VWS V14.01,2013-01-24 21:30:00,
2013-01-24 22:31:00,49.2,44.3,29.44,NE,41,1.0,3.0,83,0.00,,,0.49,VWS V14.01,2013-01-24 21:31:00,
2013-01-24 22:36:00,49.6,44.3,29.44,NE,41,0.0,0.0,82,0.00,,,0.49,VWS V14.01,2013-01-24 21:36:00,
2013-01-24 22:40:00,49.5,44.2,29.44,NE,41,2.0,3.0,82,0.00,,,0.49,VWS V14.01,2013-01-24 21:40:00,
2013-01-24 22:41:00,49.5,44.2,29.44,NE,41,0.0,2.0,82,0.00,,,0.49,VWS V14.01,2013-01-24 21:41:00,
2013-01-24 22:46:00,49.4,44.1,29.44,NE,41,0.0,2.0,82,0.00,,,0.49,VWS V14.01,2013-01-24 21:46:00,
2013-01-24 22:50:00,49.0,44.1,29.44,NE,41,3.0,3.0,83,0.01,,,0.50,VWS V14.01,2013-01-24 21:50:00,
2013-01-24 22:51:00,49.2,44.0,29.44,NE,41,2.0,3.0,82,0.01,,,0.50,VWS V14.01,2013-01-24 21:51:00,
2013-01-24 22:56:00,49.0,44.1,29.44,NE,41,3.0,3.0,83,0.01,,,0.50,VWS V14.01,2013-01-24 21:56:00,
2013-01-24 23:00:00,48.9,44.3,29.44,ENE,74,3.0,4.0,84,0.01,,,0.50,VWS V14.01,2013-01-24 22:00:00,
2013-01-24 23:02:00,49.0,44.4,29.44,ENE,74,3.0,4.0,84,0.01,,,0.50,VWS V14.01,2013-01-24 22:02:00,
2013-01-24 23:07:00,48.7,44.1,29.44,East,79,3.0,5.0,84,0.01,,,0.50,VWS V14.01,2013-01-24 22:07:00,
2013-01-24 23:10:00,48.4,44.4,29.44,East,92,5.0,7.0,86,0.01,,,0.50,VWS V14.01,2013-01-24 22:10:00,
2013-01-24 23:12:00,48.4,44.1,29.44,East,92,7.0,7.0,85,0.01,,,0.50,VWS V14.01,2013-01-24 22:12:00,
2013-01-24 23:17:00,48.3,44.3,29.44,East,92,2.0,6.0,86,0.01,,,0.50,VWS V14.01,2013-01-24 22:17:00,
2013-01-24 23:20:00,48.6,44.6,29.44,ESE,110,2.0,7.0,86,0.01,,,0.50,VWS V14.01,2013-01-24 22:20:00,
2013-01-24 23:22:00,48.4,44.4,29.44,East,90,5.0,6.0,86,0.01,,,0.50,VWS V14.01,2013-01-24 22:22:00,
2013-01-24 23:27:00,48.4,44.4,29.44,East,79,5.0,6.0,86,0.01,,,0.50,VWS V14.01,2013-01-24 22:27:00,
2013-01-24 23:30:00,48.2,44.2,29.44,East,79,3.0,6.0,86,0.01,,,0.50,VWS V14.01,2013-01-24 22:30:00,
2013-01-24 23:32:00,48.2,44.2,29.43,East,79,5.0,6.0,86,0.01,,,0.50,VWS V14.01,2013-01-24 22:32:00,
2013-01-24 23:37:00,48.3,44.3,29.44,East,79,5.0,5.0,86,0.01,,,0.50,VWS V14.01,2013-01-24 22:37:00,
2013-01-24 23:40:00,48.3,44.6,29.44,East,82,5.0,6.0,87,0.01,,,0.50,VWS V14.01,2013-01-24 22:40:00,
2013-01-24 23:42:00,48.1,44.1,29.44,East,81,3.0,6.0,86,0.01,,,0.50,VWS V14.01,2013-01-24 22:42:00,
2013-01-24 23:47:00,48.4,44.7,29.44,East,82,2.0,5.0,87,0.01,,,0.50,VWS V14.01,2013-01-24 22:47:00,
2013-01-24 23:50:00,47.7,44.0,29.43,NNE,15,6.0,7.0,87,0.01,,,0.50,VWS V14.01,2013-01-24 22:50:00,
2013-01-24 23:52:00,47.8,44.1,29.43,NNE,12,6.0,7.0,87,0.01,,,0.50,VWS V14.01,2013-01-24 22:52:00,
2013-01-24 23:58:00,47.7,44.0,29.43,NE,43,5.0,6.0,87,0.00,,,0.50,VWS V14.01,2013-01-24 22:58:00,